Flag for Russia Weather past 2 weeks in Surgut, Russia

Now
46 °F

Passing clouds.


Feels Like: 45 °F
Forecast: 38 / 59 °F
Wind: 3 mph from Southeast

Location: Surgut Airport

Current Time: Aug 28, 2014 at 5:23:29 AM

Latest Report: Aug 28, 2014 at 5:00 AM


Visibility: 4 mi

Pressure: 30.15 "Hg

Humidity: 76%

Dew point: 39 °F

Location of SurgutLocation

Historic Weather in Surgut — Graph

°F

Surgut temperature yesterday

Maximum temperature yesterday: 50 °F (at 10:30 AM)
Minimum temperature yesterday: 45 °F (at 1:00 AM)
Average temperature yesterday: 47 °F

Past Weeks' High & Low Weather Summary

 TemperatureHumidityPressure
High75 °F (Aug 16, 3:30 PM)100% (Aug 15, 4:00 AM)30.21 "Hg (Aug 15, 4:00 AM)
Low45 °F (Aug 27, 1:00 AM)35% (Aug 14, 2:00 PM)29.45 "Hg (Aug 18, 12:00 AM)
Average59 °F75%29.84 "Hg
* Reported Aug 13 4:00 AM — Aug 28 4:30 AM, Surgut, Weather by CustomWeather, © 2014

Note: Actual official high and low records may vary slightly from our data, if they occured in-between our weather recording intervals... More about our weather records

Advertising

Surgut weather history for previous 24 hours

 ConditionsComfort  
Time TempWeatherWind HumidityBarometerVisibility
4:30 AM
Aug 28
46 °FPassing clouds.6 mph76%30.15 "Hg4 mi
4:00 AM46 °FPassing clouds.3 mph76%30.15 "Hg4 mi
3:30 AM46 °FPassing clouds.3 mph76%30.18 "Hg4 mi
3:00 AM46 °FPassing clouds.6 mph76%30.18 "Hg4 mi
2:30 AM46 °FPassing clouds.3 mph76%30.18 "Hg4 mi
2:00 AM46 °FPassing clouds.6 mph71%30.18 "Hg4 mi
1:30 AM48 °FPassing clouds.6 mph71%30.18 "Hg4 mi
1:00 AM48 °FPassing clouds.3 mph66%30.18 "Hg4 mi
12:30 AM46 °FPassing clouds.1 mph71%30.18 "Hg4 mi
11:30 PM
Aug 27
46 °FPassing clouds.1 mph76%30.18 "Hg4 mi
11:00 PM46 °FPassing clouds.3 mph76%30.18 "Hg4 mi
10:30 PM46 °FPassing clouds.1 mph76%30.18 "Hg4 mi
10:00 PM46 °FPassing clouds.1 mph76%30.18 "Hg4 mi
9:00 PM48 °FPartly sunny.1 mph76%30.18 "Hg4 mi
8:30 PM48 °FPartly sunny.3 mph71%30.18 "Hg4 mi
8:00 PM48 °FPartly sunny.1 mph71%30.18 "Hg4 mi
7:30 PM50 °FPartly sunny.3 mph62%30.18 "Hg4 mi
7:00 PM50 °FPartly sunny.3 mph58%30.18 "Hg4 mi
6:30 PM50 °FPartly sunny.3 mph58%30.18 "Hg4 mi
6:00 PM50 °FPartly sunny.3 mph58%30.15 "Hg4 mi
5:30 PM50 °FPartly sunny.6 mph58%30.15 "Hg4 mi
5:00 PM50 °FPartly sunny.3 mph62%30.18 "Hg4 mi
4:30 PM50 °FPartly sunny.6 mph62%30.18 "Hg4 mi
4:00 PM50 °FPartly sunny.3 mph62%30.18 "Hg4 mi
3:30 PM50 °FPartly sunny.6 mph62%30.18 "Hg4 mi
3:00 PM50 °FPartly sunny.3 mph58%30.18 "Hg4 mi
2:30 PM50 °FPartly sunny.3 mph58%30.18 "Hg4 mi
2:00 PM50 °FPartly sunny.6 mph58%30.18 "Hg4 mi
1:30 PM50 °FPartly sunny.1 mph62%30.18 "Hg4 mi
1:00 PM48 °FPartly sunny.6 mph66%30.18 "Hg4 mi
12:30 PM48 °FPartly sunny.6 mph66%30.18 "Hg4 mi
12:00 PM48 °FPartly sunny.6 mph71%30.18 "Hg4 mi
11:30 AM48 °FScattered clouds.8 mph66%30.18 "Hg4 mi
11:00 AM46 °FScattered clouds.8 mph76%30.18 "Hg4 mi
10:30 AM50 °FScattered clouds.8 mph62%30.18 "Hg4 mi
10:00 AM48 °FScattered clouds.6 mph66%30.18 "Hg4 mi
9:30 AM48 °FScattered clouds.13 mph66%30.18 "Hg4 mi
9:00 AM48 °FSprinkles. Scattered clouds.1 mph76%30.18 "Hg4 mi
8:30 AM46 °FScattered clouds.3 mph76%30.18 "Hg4 mi
8:00 AM46 °FScattered clouds.6 mph76%30.18 "Hg4 mi
7:30 AM45 °FPartly sunny.3 mph87%30.18 "Hg4 mi
7:00 AM46 °FPartly sunny.3 mph76%30.15 "Hg4 mi
6:30 AM45 °FPassing clouds.3 mph81%30.15 "Hg4 mi
6:00 AM45 °FPassing clouds.3 mph81%30.15 "Hg4 mi
5:30 AM46 °FPassing clouds.6 mph76%30.15 "Hg4 mi
5:00 AM45 °FPassing clouds.3 mph81%30.15 "Hg4 mi
Weather by CustomWeather, © 2014

See weather overviewHow to use our weather pages